This demonstration page uses our WeatherBlox Daily Observations layout. Learn more.

Left ArrowRight Arrow

38.80484, -77.04692

Hourly Observations for November 11, 2015

Temp ( °F °C ) Dew Point ( °F °C ) Humidity (%) Winds ( mph kmh ) Pressure ( in mb ) Visibility ( mi km ) Precip ( " mm )
12:52 am 00:52 Cloudy 55 12.8 46 7.8 72 72 WNW 12 19 29.86 1011 10 16 0.00 0.00
1:52 am 01:52 Mostly Cloudy 55 12.8 45 7.2 69 69 NW 10 17 29.87 1011 10 16 0.00 0.00
2:52 am 02:52 Cloudy 55 12.8 44 6.7 67 67 WNW 5 7 29.87 1012 10 16 0.00 0.00
3:52 am 03:52 Mostly Cloudy 54 12.2 44 6.7 69 69 NW 8 13 29.88 1012 10 16 0.00 0.00
4:52 am 04:52 Mostly Clear 53 11.7 44 6.7 72 72 W 7 11 29.90 1013 10 16 0.00 0.00
5:52 am 05:52 Mostly Clear 53 11.7 44 6.7 72 72 WNW 12 19 29.90 1013 10 16 0.00 0.00
6:52 am 06:52 Mostly Sunny 53 11.7 44 6.7 72 72 NW 13 20 29.91 1013 10 16 0.00 0.00
7:52 am 07:52 Mostly Sunny 55 12.8 44 6.7 67 67 NW 16 26 29.94 1014 10 16 0.00 0.00
8:52 am 08:52 Partly Cloudy 57 13.9 45 7.2 64 64 NW 10 17 29.96 1015 10 16 0.00 0.00
9:52 am 09:52 Mostly Cloudy 58 14.4 45 7.2 62 62 WNW 14 22 29.98 1015 10 16 0.00 0.00
10:52 am 10:52 Mostly Cloudy 60 15.6 46 7.8 60 60 NW 20 31 29.99 1016 10 16 0.00 0.00
11:52 am 11:52 Partly Cloudy 62 16.7 47 8.3 58 58 NNW 16 26 29.97 1015 10 16 0.00 0.00
12:52 pm 12:52 Mostly Cloudy 63 17.2 47 8.3 56 56 NW 12 19 29.96 1015 10 16 0.00 0.00
1:52 pm 13:52 Mostly Cloudy 63 17.2 47 8.3 56 56 WNW 13 20 29.96 1015 10 16 0.00 0.00
2:52 pm 14:52 Mostly Cloudy 63 17.2 46 7.8 54 54 NW 8 13 29.96 1015 10 16 0.00 0.00
3:52 pm 15:52 Mostly Cloudy 63 17.2 46 7.8 54 54 NNW 10 17 29.97 1015 10 16 0.00 0.00
4:52 pm 16:52 Mostly Cloudy 60 15.6 45 7.2 58 58 NW 13 20 29.98 1015 10 16 0.00 0.00
5:52 pm 17:52 Partly Cloudy 58 14.4 45 7.2 62 62 NW 13 20 30.01 1016 10 16 0.00 0.00
6:52 pm 18:52 Partly Cloudy 56 13.3 45 7.2 67 67 NW 9 15 30.01 1016 10 16 0.00 0.00
7:52 pm 19:52 Partly Cloudy 55 12.8 44 6.7 67 67 NNW 9 15 30.01 1016 10 16 0.00 0.00
8:52 pm 20:52 Mostly Cloudy 53 11.7 44 6.7 72 72 N 8 13 30.00 1016 10 16 0.00 0.00
9:52 pm 21:52 Mostly Cloudy 52 11.1 44 6.7 75 75 NNW 6 9 30.00 1016 10 16 0.00 0.00
10:52 pm 22:52 Mostly Cloudy 52 11.1 44 6.7 75 75 NNW 6 9 30.00 1016 10 16 0.00 0.00
11:52 pm 23:52 Mostly Cloudy 51 10.6 44 6.7 77 77 NNW 5 7 29.99 1016 10 16 0.00 0.00

Powered by AerisWeather